Tracking 18844 objects as of 21-Nov-2017
HD Live streaming from Space Station
objects crossing your sky now

PROGNOZ 6

Track PROGNOZ 6 now!
PROGNOZ 6 is classified as:


NORAD ID: 10370
Int'l Code: 1977-093A
Perigee: 8,317.0 km
Apogee: 189,955.4 km
Inclination: 75.2 °
Period: 5,684.4 minutes
Semi major axis: 105507 km
RCS: 2.5179 m2 (large)
Launch date: September 22, 1977
Source: Commonwealth of Independent States (former USSR) (CIS)
Launch site: TYURATAM MISSILE AND SPACE COMPLEX (TTMTR)
aabbcc
Your satellite tracking list
Your tracking list is empty




NASA's NSSDC Master Catalog

Two Line Element Set (TLE):
1 10370U 77093A   17328.41928225  .00001188  00000-0  00000+0 0  9998
2 10370  75.1714 300.2093 8607864 226.7513   1.1606  0.25332599 34818
Source of the keplerian elements: AFSPC